FW1519 Weather Reports


Display with metric or nautical units.
time (UTC)temp
F
wind
direction
speed
MPH
gust
MPH
rain 1hr
in
rain 24hr
in
rain mn
in
humidity
%
barometer
mb
20260502170201 58 265 8.0 15.0 0.00 0.00 0.00 36 1015.3
20260502164202 57 167 9.0 17.0 0.00 0.00 0.00 36 1015.6
20260502163701 57 189 9.0 17.0 0.00 0.00 0.00 36 1015.9
20260502162703 57 217 7.0 15.0 0.00 0.00 0.00 37 1015.9
20260502162200 57 169 7.0 15.0 0.00 0.00 0.00 36 1016.1
20260502161202 56 199 8.0 18.0 0.00 0.00 0.00 37 1016.3
20260502160701 56 210 6.0 13.0 0.00 0.00 0.00 38 1016.3
20260502160202 56 220 7.0 15.0 0.00 0.00 0.00 39 1016.4
20260502152135 53 256 6.0 13.0 0.00 0.00 0.00 44 1016.9
20260502151130 54 253 6.0 12.0 0.00 0.00 0.00 42 1017.0
20260502150631 54 219 5.0 11.0 0.00 0.00 0.00 42 1017.1
20260502150130 53 207 4.0 12.0 0.00 0.00 0.00 45 1017.1
20260502130629 41 261 2.0 7.0 0.00 0.00 0.00 64 1018.0
20260502130130 41 254 1.0 4.0 0.00 0.00 0.00 65 1018.0
20260502123631 38 265 0.0 2.0 0.00 0.00 0.00 72 1018.1
20260502123129 37 265 1.0 3.0 0.00 0.00 0.00 72 1018.1
20260502122630 36 265 1.0 3.0 0.00 0.00 0.00 75 1018.1
20260502122129 35 304 1.0 3.0 0.00 0.00 0.00 79 1018.1
20260502121629 34 263 0.0 3.0 0.00 0.00 0.00 83 1018.1
20260502121130 34 237 0.0 0.0 0.00 0.00 0.00 84 1018.1
20260502120630 33 237 0.0 0.0 0.00 0.00 0.00 85 1018.0
20260502120129 33 237 0.0 0.0 0.00 0.00 0.00 85 1018.0
20260502115629 33 237 0.0 0.0 0.00 0.00 0.00 86 1018.0
20260502115130 32 237 0.0 0.0 0.00 0.00 0.00 87 1018.1
20260502114629 31 237 0.0 0.0 0.00 0.00 0.00 87 1018.0
20260502114130 31 237 0.0 0.0 0.00 0.00 0.00 87 1018.0
20260502113628 31 237 0.0 1.0 0.00 0.00 0.00 88 1018.0
20260502113129 31 237 0.0 4.0 0.00 0.00 0.00 88 1018.0
20260502112630 31 237 0.0 4.0 0.00 0.00 0.00 88 1017.9
20260502111630 30 250 0.0 3.0 0.00 0.00 0.00 88 1018.0
20260502111131 30 298 0.0 2.0 0.00 0.00 0.00 89 1018.0
20260502110626 30 350 0.0 0.0 0.00 0.00 0.00 89 1018.1
20260502110126 30 350 0.0 0.0 0.00 0.00 0.00 89 1018.0
20260502105122 31 350 0.0 0.0 0.00 0.00 0.00 89 1018.0
20260502104621 31 350 0.0 0.0 0.00 0.00 0.00 89 1017.9
20260502103119 31 350 0.0 0.0 0.00 0.00 0.00 89 1017.9
20260502102616 31 350 0.0 0.0 0.00 0.00 0.00 89 1017.9
20260502102118 31 350 0.0 0.0 0.00 0.00 0.00 89 1017.9
20260502101616 31 350 0.0 0.0 0.00 0.00 0.00 89 1017.9
20260502100614 31 350 0.0 0.0 0.00 0.00 0.00 89 1017.8
20260502100112 32 350 0.0 0.0 0.00 0.00 0.00 89 1017.9
20260502091105 33 350 0.0 0.0 0.00 0.00 0.00 88 1017.8
20260502090604 33 350 0.0 0.0 0.00 0.00 0.00 88 1017.8
20260502090104 33 350 0.0 1.0 0.00 0.00 0.00 88 1017.8
20260502070601 35 355 0.0 0.0 0.00 0.00 0.00 82 1018.2
20260502065602 35 355 0.0 2.0 0.00 0.00 0.00 81 1018.3
20260502065101 35 355 0.0 2.0 0.00 0.00 0.00 80 1018.4
20260502064603 35 355 0.0 1.0 0.00 0.00 0.00 79 1018.3
20260502064104 36 355 0.0 0.0 0.00 0.00 0.00 79 1018.3
20260502063556 36 355 0.0 0.0 0.00 0.00 0.00 78 1018.4
20260502063050 36 355 0.0 0.0 0.00 0.00 0.00 77 1018.3
20260502062544 36 355 0.0 0.0 0.00 0.00 0.00 77 1018.3
20260502062038 36 355 0.0 0.0 0.00 0.00 0.00 76 1018.3
20260502061532 36 355 0.0 1.0 0.00 0.00 0.00 76 1018.3
20260502060531 36 355 0.0 2.0 0.00 0.00 0.00 76 1018.3
20260502060028 36 355 1.0 2.0 0.00 0.00 0.00 76 1018.3
20260502055526 36 355 3.0 6.0 0.00 0.00 0.00 77 1018.3
20260502055026 36 355 2.0 6.0 0.00 0.00 0.00 78 1018.2
20260502054525 36 355 1.0 5.0 0.00 0.00 0.00 77 1018.3
20260502054026 37 337 0.0 0.0 0.00 0.00 0.00 74 1018.2
20260502053525 37 337 0.0 0.0 0.00 0.00 0.00 72 1018.3
20260502052522 37 337 0.0 0.0 0.00 0.00 0.00 72 1018.3
20260502052021 37 337 0.0 0.0 0.00 0.00 0.00 71 1018.3
20260502051519 38 337 0.0 0.0 0.00 0.00 0.00 70 1018.3
20260502051017 38 337 0.0 0.0 0.00 0.00 0.00 71 1018.3
20260502050515 38 337 0.0 0.0 0.00 0.00 0.00 71 1018.4
20260502050013 38 337 0.0 0.0 0.00 0.00 0.00 70 1018.3
20260502045511 38 337 0.0 0.0 0.00 0.00 0.00 67 1018.3
20260502045011 38 337 0.0 0.0 0.00 0.00 0.00 67 1018.4
20260502044509 38 337 0.0 0.0 0.00 0.00 0.00 67 1018.3
20260502044005 39 337 0.0 0.0 0.00 0.00 0.00 68 1018.3
20260502043502 39 337 0.0 0.0 0.00 0.00 0.00 70 1018.4
20260502043003 39 337 0.0 0.0 0.00 0.00 0.00 70 1018.5
20260502042502 39 337 0.0 0.0 0.00 0.00 0.00 71 1018.4
20260502042003 40 337 0.0 1.0 0.00 0.00 0.00 71 1018.3
20260502041504 40 337 1.0 2.0 0.00 0.00 0.00 71 1018.4
20260502040501 41 336 1.0 3.0 0.00 0.00 0.00 69 1018.4
20260502040002 41 334 0.0 0.0 0.00 0.00 0.00 65 1018.4
20260502035501 42 334 0.0 0.0 0.00 0.00 0.00 61 1018.4
20260502035002 42 334 0.0 0.0 0.00 0.00 0.00 59 1018.4
20260502034502 42 334 0.0 0.0 0.00 0.00 0.00 59 1018.4
20260502034001 42 334 0.0 0.0 0.00 0.00 0.00 55 1018.5
20260502033502 43 334 0.0 0.0 0.00 0.00 0.00 56 1018.4
20260502033001 43 334 0.0 0.0 0.00 0.00 0.00 56 1018.4
20260502032501 43 334 0.0 0.0 0.00 0.00 0.00 55 1018.4
20260502032004 43 334 0.0 0.0 0.00 0.00 0.00 52 1018.4
20260502031502 44 334 0.0 0.0 0.00 0.00 0.00 53 1018.4
20260502031002 44 334 0.0 0.0 0.00 0.00 0.00 51 1018.4
20260502030503 44 334 0.0 0.0 0.00 0.00 0.00 48 1018.5
20260502025451 45 334 0.0 0.0 0.00 0.00 0.00 46 1018.4
20260502024944 45 334 0.0 0.0 0.00 0.00 0.00 49 1018.4
20260502023931 46 334 0.0 0.0 0.00 0.00 0.00 47 1018.3
20260502023426 46 334 0.0 0.0 0.00 0.00 0.00 48 1018.3
20260502022923 46 334 0.0 0.0 0.00 0.00 0.00 48 1018.3
20260502022423 47 334 0.0 0.0 0.00 0.00 0.00 47 1018.3
20260502021923 47 334 0.0 0.0 0.00 0.00 0.00 45 1018.3
20260502021420 47 334 0.0 0.0 0.00 0.00 0.00 45 1018.2
20260502020919 48 334 0.0 0.0 0.00 0.00 0.00 41 1018.2
20260502020416 48 334 0.0 0.0 0.00 0.00 0.00 43 1018.1
20260502015415 49 334 0.0 0.0 0.00 0.00 0.00 44 1018.1
20260502014916 49 334 0.0 0.0 0.00 0.00 0.00 40 1018.1
20260502014416 49 334 0.0 0.0 0.00 0.00 0.00 41 1018.0
20260502013916 50 334 0.0 0.0 0.00 0.00 0.00 40 1018.0
20260502013416 50 334 0.0 0.0 0.00 0.00 0.00 39 1018.0
20260502012413 51 334 0.0 1.0 0.00 0.00 0.00 36 1017.9
20260502011913 52 334 0.0 1.0 0.00 0.00 0.00 37 1017.9
20260502011413 52 334 0.0 2.0 0.00 0.00 0.00 37 1017.8
20260502010914 52 334 1.0 4.0 0.00 0.00 0.00 35 1017.8
20260502010408 52 333 1.0 4.0 0.00 0.00 0.00 33 1017.9
20260502005404 52 32 1.0 3.0 0.00 0.00 0.00 33 1017.9
20260502004404 52 38 2.0 6.0 0.00 0.00 0.00 33 1017.8
20260502003402 53 341 2.0 6.0 0.00 0.00 0.00 32 1017.8
20260502002903 52 14 2.0 7.0 0.00 0.00 0.00 33 1017.9
20260502002403 52 32 5.0 10.0 0.00 0.00 0.00 32 1017.9
20260502001903 52 46 5.0 10.0 0.00 0.00 0.00 33 1017.8
20260502000903 52 0 3.0 8.0 0.00 0.00 0.00 34 1017.8
20260502000403 52 355 4.0 8.0 0.00 0.00 0.00 34 1017.9
20260501235904 52 338 4.0 8.0 0.00 0.00 0.00 34 1017.8
20260501235403 52 343 3.0 8.0 0.00 0.00 0.00 33 1017.9
20260501234900 52 0 2.0 5.0 0.00 0.00 0.00 34 1017.9
20260501234401 52 355 3.0 5.0 0.00 0.00 0.00 32 1017.9
20260501233359 53 343 4.0 8.0 0.00 0.00 0.00 32 1017.9
20260501232857 53 355 5.0 11.0 0.00 0.00 0.00 32 1017.9
20260501232358 54 323 4.0 11.0 0.00 0.00 0.00 31 1018.0
20260501231859 54 326 3.0 7.0 0.00 0.00 0.00 32 1017.9
20260501231356 54 296 5.0 9.0 0.00 0.00 0.00 32 1017.9
20260501230858 54 277 5.0 10.0 0.00 0.00 0.00 31 1018.0
20260501230358 54 293 4.0 10.0 0.00 0.00 0.00 32 1017.9
20260501225854 53 322 6.0 14.0 0.00 0.00 0.00 33 1018.0
20260501224353 53 300 5.0 12.0 0.00 0.00 0.00 32 1017.9
20260501223356 53 319 6.0 11.0 0.00 0.00 0.00 32 1018.0
20260501222856 54 328 5.0 11.0 0.00 0.00 0.00 32 1018.0
20260501222354 54 284 6.0 11.0 0.00 0.00 0.00 32 1018.0
20260501221349 55 319 4.0 13.0 0.00 0.00 0.00 32 1018.0
20260501220849 54 312 3.0 10.0 0.00 0.00 0.00 32 1018.0
20260501220350 54 319 3.0 10.0 0.00 0.00 0.00 32 1018.0
20260501215848 53 323 3.0 7.0 0.00 0.00 0.00 33 1018.1
20260501215348 53 306 4.0 9.0 0.00 0.00 0.00 33 1018.1
20260501214849 53 251 4.0 9.0 0.00 0.00 0.00 33 1018.1
20260501214349 53 289 4.0 10.0 0.00 0.00 0.00 33 1018.1
20260501213849 52 300 5.0 10.0 0.00 0.00 0.00 32 1018.1
20260501213351 53 339 5.0 10.0 0.00 0.00 0.00 32 1018.1
20260501212347 53 284 8.0 16.0 0.00 0.00 0.00 32 1018.1
20260501211846 53 260 6.0 12.0 0.00 0.00 0.00 33 1018.2
20260501211346 52 304 4.0 10.0 0.00 0.00 0.00 34 1018.2
20260501210847 52 44 4.0 10.0 0.00 0.00 0.00 32 1018.2
20260501210346 52 313 6.0 10.0 0.00 0.00 0.00 33 1018.2
20260501205847 52 273 6.0 10.0 0.00 0.00 0.00 33 1018.2
20260501205346 53 304 5.0 10.0 0.00 0.00 0.00 33 1018.3
20260501204848 53 282 5.0 12.0 0.00 0.00 0.00 34 1018.2
20260501204341 53 320 7.0 12.0 0.00 0.00 0.00 33 1018.3
20260501203340 53 32 6.0 12.0 0.00 0.00 0.00 33 1018.4
20260501202839 52 16 5.0 12.0 0.00 0.00 0.00 35 1018.5
20260501201838 52 343 5.0 12.0 0.00 0.00 0.00 34 1018.5
20260501201336 52 325 6.0 17.0 0.00 0.00 0.00 34 1018.5
20260501200832 52 348 7.0 17.0 0.00 0.00 0.00 33 1018.5
20260501200332 53 355 5.0 16.0 0.00 0.00 0.00 32 1018.5
20260501195831 52 147 3.0 8.0 0.00 0.00 0.00 34 1018.6
20260501194830 51 324 5.0 17.0 0.00 0.00 0.00 33 1018.6
20260501194330 52 315 4.0 17.0 0.00 0.00 0.00 34 1018.7
20260501193830 51 32 4.0 12.0 0.00 0.00 0.00 34 1018.6
20260501193330 51 326 4.0 11.0 0.00 0.00 0.00 37 1018.6
20260501192828 51 13 4.0 10.0 0.00 0.00 0.00 34 1018.7
20260501191829 51 308 4.0 10.0 0.00 0.00 0.00 36 1018.6
20260501191330 50 323 8.0 16.0 0.00 0.00 0.00 36 1018.7
20260501190829 50 277 8.0 16.0 0.00 0.00 0.00 35 1018.7
20260501190319 51 9 6.0 14.0 0.00 0.00 0.00 35 1018.8
20260501185319 51 336 6.0 13.0 0.00 0.00 0.00 36 1018.8
20260501184318 50 286 7.0 15.0 0.00 0.00 0.00 37 1018.8
20260501183317 50 313 5.0 13.0 0.00 0.00 0.00 37 1018.9
20260501182815 50 338 5.0 12.0 0.00 0.00 0.00 36 1018.9
20260501182314 50 250 5.0 12.0 0.00 0.00 0.00 36 1019.1
20260501181813 50 317 6.0 14.0 0.00 0.00 0.00 37 1018.9
20260501181314 49 348 7.0 14.0 0.00 0.00 0.00 38 1019.1
20260501180813 49 289 6.0 12.0 0.00 0.00 0.00 38 1019.1
20260501175811 50 331 6.0 16.0 0.00 0.00 0.00 38 1019.2
20260501175311 49 336 6.0 16.0 0.00 0.00 0.00 37 1019.1